Regional Weather Roundup
Issued by NWS

Home | Current Version | Previous Version | Graphics & Text | Print | Product List | Glossary On
Versions: 1 2 3 4 5 6 7 8 9 10 11 12 13 14 15 16 17 18 19 20 21 22 23 24 25 26 27 28 29 30 31 32 33 34 35 36 37 38 39 40 41 42 43 44 45 46 47 48 49 50
000
ASUS43 KFSD 010402
RWRSD

WEATHER ROUNDUP FOR SOUTH DAKOTA
NATIONAL WEATHER SERVICE SIOUX FALLS SD
1100 PM CDT THU JUL 31 2014

NOTE: "FAIR" INDICATES FEW OR NO CLOUDS BELOW 12,000 FEET WITH NO
SIGNIFICANT WEATHER AND/OR OBSTRUCTIONS TO VISIBILITY.


SDZ001>005-009-010-012>017-010500-
NORTHWEST AND NORTH CENTRAL SOUTH DAKOTA

CITY           SKY/WX    TMP DP  RH WIND       PRES   REMARKS
BUFFALO          N/A     68  47  46 S7        30.02R
FAITH            N/A     73  55  53 SE12      30.07R
MOBRIDGE       CLEAR     68  57  68 SE8       30.02R
$$

SDZ012>016-024>037-041>051-057-063-072>074-010500-
SOUTHWEST AND SOUTH CENTRAL SOUTH DAKOTA

CITY           SKY/WX    TMP DP  RH WIND       PRES   REMARKS
RAPID CTY ARPT MOCLDY    66  52  60 E5        30.13F
PIERRE         CLEAR     67  59  75 E6        30.04R
CUSTER         CLEAR     56  54  93 NW3       30.28R
ELLSWORTH AFB  MOCLDY    72  50  45 S8        30.13R
PHILIP         PTCLDY    69  51  52 E7        30.06R
PINE RIDGE     CLEAR     61  55  81 CALM      30.15R
WINNER         FAIR      70  57  63 SE9       30.07R
$$

SDZ004>011-016>023-039-040-010500-
NORTHEAST SOUTH DAKOTA

CITY           SKY/WX    TMP DP  RH WIND       PRES   REMARKS
ABERDEEN       CLEAR     59  56  89 S3        30.04S
WATERTOWN      CLEAR     64  55  72 CALM      30.07R
SISSETON         N/A     63  60  90 SW3       30.02S
$$

SDZ017-020-022-023-036>040-048>070-010500-
SOUTHEAST SOUTH DAKOTA

CITY           SKY/WX    TMP DP  RH WIND       PRES   REMARKS
SIOUX FALLS    CLEAR     61  59  93 CALM      30.06R
HURON          CLEAR     64  57  78 CALM      30.05R
CHAMBERLAIN    CLEAR     66  57  73 E5        30.06R
MITCHELL       CLEAR     67  60  78 SE7       30.06R
YANKTON        CLEAR     63  61  94 E3        30.07R
$$

ABBREVIATIONS USED IN REMARKS
   TC - TEMPERATURE IN CELSIUS
  WCI - WIND CHILL INDEX
   HX - HEAT INDEX
  VSB - VISIBILITY



USA.gov is the U.S. government's official web portal to all federal, state and local government web resources and services.